User: anonymous   Login
Location: Unspecified
(0.0000°N, 0.0000°E)
Time: 18:30:31
(UTC+02:00)
Language:

IUS-9 SRM-1 - Orbit

View from above orbital plane
View from above orbital plane
View from above satellite
View from above satellite

Ground track
Ground track

The orbit data is extracted from the following two-line orbital elements,

1 19884U 89021C   17145.99086786 +.00003658 +00000-0 +27563-3 0  9999
2 19884 026.5211 019.8563 5969941 279.0338 021.6006 04.13295624333062
Epoch (UTC): 25 May 2017 23:46:50
Eccentricity: 0.5969941
inclination: 26.5211°
perigee height: 232 km
apogee height: 19815 km
right ascension of ascending node: 19.8563°
argument of perigee: 279.0338°
revolutions per day: 4.13295624
mean anomaly at epoch: 21.6006°
orbit number at epoch: 33306

The dashed part of the orbit path shows where the satellite is in the earth's shadow,  

DLR